Date String (YYYY-MM-DD hh:mm:ss) UTC,Instrument flags,absolute air pressure of the measurement (hPa),sample flow rate (lpm),inlet stack bypass flow (lpm),air temperature of the measurement (°C),ambient temperature measured by the external sensor (°C),aerosol sample conditioner tube jacket temperature (°C),OPC LED temperature (°C),internal box temperature (°C),relative humidity of the measurement (%),span deviation,mass concentration of particles derived from Lorenz-Mie calculation of OPC scattering (μg/m³),mass concentration of particles derived from Lorenz-Mie calculation of OPC scattering (μg/m³),mass concentration of particles derived from Lorenz-Mie calculation of OPC scattering (μg/m³)
DateTimeUTC,F1_M11,P_M11,Q1_M11,Q2_M11,T1_M11,T2_M11,T3_M11,T4_M11,T5_M11,U1_M11,ZSPAN_M11,X2_M11,X0_M11,X1_M11
2023-07-30 05:00:00,SystemResetWarning,0837.8,4.99,000.00,032.3,027.1,000.0,040.0,031.7,34.4,0000.0,0007.32,0017.82,0005.78
2023-07-30 05:01:00,SystemResetWarning,0837.8,4.99,000.00,032.3,027.4,000.0,040.0,031.8,34.2,0000.0,0007.32,0017.98,0005.81
2023-07-30 05:02:00,SystemResetWarning,0837.8,5.00,000.00,032.3,027.7,000.0,040.0,031.8,34.3,0000.0,0007.40,0017.99,0005.84
2023-07-30 05:03:00,SystemResetWarning,0837.8,5.00,000.00,032.3,027.9,000.0,040.0,031.8,34.5,0000.0,0007.45,0018.15,0005.89
2023-07-30 05:04:00,SystemResetWarning,0837.8,5.00,000.00,032.3,028.1,000.0,040.1,031.9,34.6,0000.0,0007.46,0017.18,0005.93
2023-07-30 05:05:00,SystemResetWarning,0837.8,5.00,000.00,032.2,028.2,000.0,040.1,031.9,34.5,0000.0,0007.51,0017.88,0005.97
2023-07-30 05:06:00,SystemResetWarning,0837.8,5.00,000.00,032.2,028.2,000.0,040.1,031.9,33.7,0000.0,0007.53,0018.32,0005.99
2023-07-30 05:07:00,SystemResetWarning,0837.7,4.98,000.00,032.2,027.0,000.0,040.0,031.9,34.3,0000.0,0007.62,0018.91,0006.01
2023-07-30 05:08:00,SystemResetWarning,0837.7,5.00,000.00,032.2,026.0,000.0,039.8,031.7,34.6,0000.0,0007.63,0018.07,0006.03
2023-07-30 05:09:00,SystemResetWarning,0837.7,5.01,000.00,032.0,025.9,000.0,039.8,031.4,34.7,0000.0,0007.63,0017.72,0006.04
2023-07-30 05:10:00,SystemResetWarning,0837.6,5.00,000.00,031.8,026.2,000.0,039.8,031.3,34.7,0000.0,0007.60,0017.51,0006.06
2023-07-30 05:11:00,SystemResetWarning,0837.6,4.99,000.00,031.7,026.5,000.0,039.8,031.4,34.8,0000.0,0007.57,0016.93,0006.06
2023-07-30 05:12:00,SystemResetWarning,0837.6,4.99,000.00,031.6,026.9,000.0,039.9,031.5,35.2,0000.0,0007.65,0016.74,0006.07
2023-07-30 05:13:00,SystemResetWarning,0837.6,5.02,000.00,031.8,027.2,000.0,039.8,031.6,35.4,0000.0,0007.61,0016.36,0006.06
2023-07-30 05:14:00,SystemResetWarning,0837.6,5.00,000.00,032.0,027.5,000.0,039.8,031.8,35.1,0000.0,0007.50,0015.95,0006.05
2023-07-30 05:15:00,SystemResetWarning,0837.6,4.98,000.00,032.3,027.7,000.0,039.8,032.0,34.5,0000.0,0007.45,0016.89,0006.05
2023-07-30 05:16:00,SystemResetWarning,0837.6,5.00,000.00,032.5,027.9,000.0,039.9,032.0,34.1,0000.0,0007.38,0016.39,0006.03
2023-07-30 05:17:00,SystemResetWarning,0837.7,5.02,000.00,032.5,028.1,000.0,039.9,032.0,34.1,0000.0,0007.31,0016.33,0006.01
2023-07-30 05:18:00,SystemResetWarning,0837.7,5.00,000.00,032.6,028.3,000.0,040.0,032.0,33.9,0000.0,0007.22,0015.68,0005.98
2023-07-30 05:19:00,SystemResetWarning,0837.6,4.99,000.00,032.6,028.1,000.0,040.0,032.0,33.9,0000.0,0007.16,0016.06,0005.95
2023-07-30 05:20:00,SystemResetWarning,0837.6,5.00,000.00,032.6,026.7,000.0,039.9,031.8,34.2,0000.0,0007.17,0016.37,0005.94
2023-07-30 05:21:00,SystemResetWarning,0837.6,5.00,000.00,032.6,025.9,000.0,039.9,031.7,33.9,0000.0,0007.14,0016.58,0005.92
2023-07-30 05:22:00,SystemResetWarning,0837.6,5.01,000.00,032.4,026.0,000.0,039.9,031.4,34.1,0000.0,0007.16,0016.95,0005.92
2023-07-30 05:23:00,SystemResetWarning,0837.6,5.01,000.00,032.2,026.3,000.0,040.0,031.4,34.4,0000.0,0007.13,0018.42,0005.93
2023-07-30 05:24:00,SystemResetWarning,0837.6,4.99,000.00,032.2,026.7,000.0,040.0,031.5,34.1,0000.0,0007.08,0018.95,0005.92
2023-07-30 05:25:00,SystemResetWarning,0837.6,5.00,000.00,032.1,027.0,000.0,040.0,031.6,33.9,0000.0,0007.06,0019.20,0005.91
2023-07-30 05:26:00,SystemResetWarning,0837.7,5.00,000.00,032.0,027.3,000.0,040.0,031.7,33.7,0000.0,0007.08,0018.57,0005.90
2023-07-30 05:27:00,SystemResetWarning,0837.6,5.00,000.00,032.0,027.6,000.0,040.0,031.7,32.7,0000.0,0007.03,0017.86,0005.87
2023-07-30 05:28:00,SystemResetWarning,0837.6,5.00,000.00,031.9,027.8,000.0,040.0,031.8,32.4,0000.0,0007.04,0017.63,0005.88
2023-07-30 05:29:00,SystemResetWarning,0837.6,5.00,000.00,031.9,028.0,000.0,040.0,031.8,32.4,0000.0,0007.10,0017.81,0005.91
2023-07-30 05:30:00,SystemResetWarning,0837.6,5.00,000.00,031.9,028.1,000.0,040.0,031.9,32.5,0000.0,0007.14,0017.94,0005.94
2023-07-30 05:31:00,SystemResetWarning,0837.6,4.98,000.00,031.9,026.8,000.0,039.8,031.8,32.3,0000.0,0007.13,0018.09,0005.94
2023-07-30 05:32:00,SystemResetWarning,0837.6,5.02,000.00,031.8,025.4,000.0,039.7,031.4,32.5,0000.0,0007.17,0017.42,0005.96
2023-07-30 05:33:00,SystemResetWarning,0837.6,5.01,000.00,031.7,025.0,000.0,039.6,031.2,32.8,0000.0,0007.20,0017.95,0005.96
2023-07-30 05:34:00,SystemResetWarning,0837.7,5.00,000.00,031.4,025.2,000.0,039.5,031.0,33.6,0000.0,0007.18,0017.39,0005.95
2023-07-30 05:35:00,SystemResetWarning,0837.6,5.00,000.00,031.3,025.6,000.0,039.5,031.0,34.0,0000.0,0007.19,0016.91,0005.97
2023-07-30 05:36:00,SystemResetWarning,0837.7,5.00,000.00,031.2,026.1,000.0,039.5,031.1,34.1,0000.0,0007.26,0018.79,0006.01
2023-07-30 05:37:00,SystemResetWarning,0837.7,5.00,000.00,031.1,026.5,000.0,039.5,031.2,34.4,0000.0,0007.29,0019.15,0006.02
2023-07-30 05:38:00,SystemResetWarning,0837.7,4.99,000.00,031.1,026.9,000.0,039.5,031.3,34.7,0000.0,0007.36,0020.97,0006.03
2023-07-30 05:39:00,SystemResetWarning,0837.7,5.00,000.00,031.0,027.2,000.0,039.4,031.3,34.7,0000.0,0007.42,0022.90,0006.04
2023-07-30 05:40:00,SystemResetWarning,0837.7,5.00,000.00,031.0,027.5,000.0,039.4,031.4,34.7,0000.0,0007.41,0023.11,0006.06
2023-07-30 05:41:00,SystemResetWarning,0837.6,5.00,000.00,031.0,027.7,000.0,039.4,031.5,35.3,0000.0,0007.43,0022.19,0006.08
2023-07-30 05:42:00,SystemResetWarning,0837.6,5.02,000.00,031.2,027.9,000.0,039.4,031.6,35.3,0000.0,0007.43,0021.90,0006.09
2023-07-30 05:43:00,SystemResetWarning,0837.7,4.98,000.00,031.4,028.1,000.0,039.3,031.8,34.6,0000.0,0007.41,0021.66,0006.07
2023-07-30 05:44:00,SystemResetWarning,0837.7,4.99,000.00,031.6,028.2,000.0,039.3,031.8,34.0,0000.0,0007.41,0021.33,0006.06
2023-07-30 05:45:00,SystemResetWarning,0837.7,4.99,000.00,031.7,027.6,000.0,039.3,031.8,33.9,0000.0,0007.39,0021.30,0006.02
2023-07-30 05:46:00,SystemResetWarning,0837.7,5.00,000.00,031.8,025.9,000.0,039.2,031.6,33.7,0000.0,0007.33,0020.84,0005.96
2023-07-30 05:47:00,SystemResetWarning,0837.6,5.00,000.00,031.7,025.0,000.0,039.1,031.3,33.7,0000.0,0007.27,0018.87,0005.90
2023-07-30 05:48:00,SystemResetWarning,0837.6,5.00,000.00,031.5,025.0,000.0,039.1,031.0,34.0,0000.0,0007.20,0018.84,0005.86
2023-07-30 05:49:00,SystemResetWarning,0837.6,5.01,000.00,031.4,025.4,000.0,039.2,030.9,34.5,0000.0,0007.10,0017.77,0005.80
2023-07-30 05:50:00,SystemResetWarning,0837.5,4.98,000.00,031.3,025.9,000.0,039.3,031.0,35.3,0000.0,0007.00,0015.79,0005.75
2023-07-30 05:51:00,SystemResetWarning,0837.5,5.02,000.00,031.4,026.3,000.0,039.3,031.2,35.4,0000.0,0006.95,0015.37,0005.68
2023-07-30 05:52:00,SystemResetWarning,0837.6,4.98,000.00,031.7,026.7,000.0,039.3,031.4,34.6,0000.0,0006.87,0015.53,0005.61
2023-07-30 05:53:00,SystemResetWarning,0837.6,5.01,000.00,031.8,027.1,000.0,039.3,031.5,34.4,0000.0,0006.82,0015.89,0005.57
2023-07-30 05:54:00,SystemResetWarning,0837.6,5.01,000.00,031.9,027.4,000.0,039.4,031.5,34.6,0000.0,0006.79,0016.01,0005.54
2023-07-30 05:55:00,SystemResetWarning,0837.6,5.00,000.00,031.9,027.6,000.0,039.4,031.6,34.6,0000.0,0006.80,0016.60,0005.54
2023-07-30 05:56:00,SystemResetWarning,0837.6,5.00,000.00,031.9,027.8,000.0,039.5,031.6,34.7,0000.0,0006.88,0016.58,0005.58
2023-07-30 05:57:00,SystemResetWarning,0837.6,5.00,000.00,032.0,028.0,000.0,039.6,031.7,34.7,0000.0,0006.94,0016.92,0005.63
2023-07-30 05:58:00,SystemResetWarning,0837.6,5.00,000.00,031.9,028.1,000.0,039.6,031.7,34.5,0000.0,0007.03,0017.53,0005.67
2023-07-30 05:59:00,SystemResetWarning,0837.6,4.99,000.00,031.9,028.3,000.0,039.7,031.8,34.5,0000.0,0007.14,0017.40,0005.72
